VTK519 USSS-UWGG

Flight info

Callsign VTK519
Flight time 1h 35m
Altitude 36000
Route K0839F360 LUNAG M864 AGNOK T796 ORTIM L158 KOKAD N604 PESAB
Aircraft B737/M-SDE2E3FGHIRWXY/LB1

Departure

Time 2026-04-24 10:24
Airport Koltsovo Airport (USSS)

Arrival

Time 2026-04-24 11:59
Airport Nizhny Novgorod / Strigino International Airport (UWGG)
Time Latitude Longitude Altitude Speed Heading
2026-04-24 09:58 56.74773 60.80006 776 ft 0 kts 180°
2026-04-24 10:16 56.74772 60.80006 776 ft 0 kts 180°
2026-04-24 10:18 56.74762 60.80007 777 ft 3 kts 180°
2026-04-24 10:18 56.74737 60.80025 777 ft 4 kts 127°
2026-04-24 10:19 56.74734 60.80079 777 ft 4 kts 92°
2026-04-24 10:19 56.74719 60.80123 776 ft 4 kts 146°
2026-04-24 10:19 56.74690 60.80130 776 ft 4 kts 179°
2026-04-24 10:19 56.74667 60.80156 776 ft 4 kts 124°
2026-04-24 10:20 56.74661 60.80216 776 ft 6 kts 91°
2026-04-24 10:20 56.74661 60.80300 777 ft 8 kts 90°
2026-04-24 10:20 56.74661 60.80408 777 ft 9 kts 90°
2026-04-24 10:20 56.74661 60.80524 777 ft 8 kts 90°
2026-04-24 10:21 56.74656 60.80620 776 ft 8 kts 117°
2026-04-24 10:21 56.74609 60.80647 776 ft 7 kts 180°
2026-04-24 10:21 56.74559 60.80647 776 ft 7 kts 180°
2026-04-24 10:21 56.74505 60.80648 776 ft 9 kts 180°
2026-04-24 10:22 56.74441 60.80633 776 ft 10 kts 188°
2026-04-24 10:22 56.74371 60.80616 776 ft 10 kts 188°
2026-04-24 10:22 56.74299 60.80598 776 ft 10 kts 188°
2026-04-24 10:22 56.74228 60.80580 776 ft 10 kts 188°
2026-04-24 10:23 56.74170 60.80565 777 ft 7 kts 188°
2026-04-24 10:23 56.74133 60.80518 777 ft 7 kts 248°
2026-04-24 10:23 56.74133 60.80431 777 ft 7 kts 274°
2026-04-24 10:23 56.74142 60.80178 777 ft 51 kts 274°
2026-04-24 10:24 56.74187 60.79059 777 ft 123 kts 274°
2026-04-24 10:24 56.74265 60.77147 881 ft 171 kts 274°
2026-04-24 10:24 56.74328 60.75004 1821 ft 166 kts 269°
2026-04-24 10:24 56.74348 60.72920 2725 ft 167 kts 268°
2026-04-24 10:25 56.74358 60.70824 3572 ft 169 kts 268°
2026-04-24 10:25 56.74365 60.68620 4295 ft 184 kts 269°
2026-04-24 10:25 56.74384 60.66090 4607 ft 216 kts 269°
2026-04-24 10:25 56.74402 60.63154 4890 ft 248 kts 269°
2026-04-24 10:26 56.74439 60.59969 5797 ft 251 kts 269°
2026-04-24 10:26 56.74481 60.56741 6681 ft 259 kts 270°
2026-04-24 10:26 56.74627 60.53436 7583 ft 264 kts 279°
2026-04-24 10:26 56.75007 60.50117 8463 ft 269 kts 279°
2026-04-24 10:27 56.75386 60.46770 9421 ft 272 kts 279°
2026-04-24 10:27 56.75765 60.43352 10177 ft 281 kts 279°
2026-04-24 10:27 56.76156 60.39694 10446 ft 306 kts 279°
2026-04-24 10:27 56.76567 60.35828 11096 ft 314 kts 278°
2026-04-24 10:28 56.76983 60.31902 11959 ft 317 kts 278°
2026-04-24 10:28 56.77403 60.27931 12874 ft 320 kts 277°
2026-04-24 10:28 56.77825 60.23932 13745 ft 323 kts 277°
2026-04-24 10:28 56.78249 60.19881 14546 ft 327 kts 277°
2026-04-24 10:29 56.78677 60.15773 15344 ft 331 kts 276°
2026-04-24 10:29 56.79057 60.11614 16163 ft 334 kts 273°
2026-04-24 10:29 56.79331 60.07386 16981 ft 338 kts 271°
2026-04-24 10:29 56.79574 60.03096 17806 ft 342 kts 270°
2026-04-24 10:30 56.79815 59.98746 18545 ft 346 kts 270°
2026-04-24 10:30 56.80063 59.94381 19356 ft 347 kts 270°
2026-04-24 10:30 56.80317 59.89992 20193 ft 347 kts 270°
2026-04-24 10:30 56.80575 59.85612 21075 ft 347 kts 270°
2026-04-24 10:31 56.80833 59.81240 21920 ft 347 kts 269°
2026-04-24 10:31 56.81090 59.76857 22720 ft 348 kts 269°
2026-04-24 10:31 56.81348 59.72462 23476 ft 349 kts 269°
2026-04-24 10:31 56.81605 59.68036 24081 ft 352 kts 269°
2026-04-24 10:32 56.81864 59.63559 24594 ft 357 kts 269°
2026-04-24 10:32 56.82125 59.59028 25112 ft 361 kts 269°
2026-04-24 10:32 56.82389 59.54440 25648 ft 365 kts 269°
2026-04-24 10:32 56.82652 59.49802 26180 ft 369 kts 269°
2026-04-24 10:33 56.82912 59.45185 26688 ft 372 kts 269°
2026-04-24 10:33 56.83176 59.40456 27183 ft 376 kts 269°
2026-04-24 10:33 56.83440 59.35689 27671 ft 380 kts 269°
2026-04-24 10:33 56.83706 59.30863 28170 ft 384 kts 270°
2026-04-24 10:34 56.83974 59.25962 28448 ft 393 kts 270°
2026-04-24 10:34 56.84247 59.20963 28852 ft 397 kts 270°
2026-04-24 10:34 56.84522 59.15932 29368 ft 399 kts 270°
2026-04-24 10:34 56.84795 59.10873 29816 ft 402 kts 270°
2026-04-24 10:35 56.85060 59.05766 30145 ft 405 kts 269°
2026-04-24 10:35 56.85228 59.00602 30476 ft 408 kts 268°
2026-04-24 10:35 56.85324 58.95394 30667 ft 414 kts 267°
2026-04-24 10:35 56.85396 58.90120 31006 ft 416 kts 267°
2026-04-24 10:36 56.85466 58.84826 31373 ft 417 kts 267°
2026-04-24 10:36 56.85539 58.79522 31705 ft 419 kts 267°
2026-04-24 10:36 56.85617 58.74179 31984 ft 422 kts 267°
2026-04-24 10:36 56.85699 58.68800 32253 ft 425 kts 267°
2026-04-24 10:37 56.85783 58.63397 32523 ft 427 kts 267°
2026-04-24 10:37 56.85867 58.57967 32871 ft 427 kts 267°
2026-04-24 10:37 56.85951 58.52544 33302 ft 426 kts 267°
2026-04-24 10:37 56.86033 58.47152 33706 ft 425 kts 267°
2026-04-24 10:38 56.86111 58.41759 33985 ft 425 kts 267°
2026-04-24 10:38 56.86187 58.36357 34238 ft 426 kts 267°
2026-04-24 10:38 56.86260 58.30957 34515 ft 426 kts 267°
2026-04-24 10:38 56.86332 58.25554 34803 ft 425 kts 267°
2026-04-24 10:39 56.86400 58.20154 35065 ft 425 kts 267°
2026-04-24 10:39 56.86467 58.14743 35308 ft 426 kts 267°
2026-04-24 10:39 56.86530 58.09332 35563 ft 426 kts 267°
2026-04-24 10:39 56.86592 58.03915 35763 ft 427 kts 267°
2026-04-24 10:40 56.86651 57.98460 35743 ft 431 kts 267°
2026-04-24 10:40 56.86763 57.87502 35763 ft 430 kts 267°
2026-04-24 10:41 56.86868 57.76628 35748 ft 426 kts 267°
2026-04-24 10:41 56.86961 57.65823 35748 ft 424 kts 267°
2026-04-24 10:42 56.87044 57.55065 35747 ft 423 kts 267°
2026-04-24 10:42 56.87117 57.44331 35749 ft 422 kts 267°
2026-04-24 10:43 56.87180 57.33610 35748 ft 422 kts 267°
2026-04-24 10:43 56.87235 57.22857 35741 ft 423 kts 266°
2026-04-24 10:44 56.87281 57.12093 35746 ft 425 kts 266°
2026-04-24 10:44 56.87317 57.01269 35742 ft 427 kts 266°
2026-04-24 10:45 56.87345 56.90402 35738 ft 428 kts 266°
2026-04-24 10:45 56.87364 56.79477 35743 ft 431 kts 266°
2026-04-24 10:46 56.87373 56.68505 35732 ft 432 kts 266°
2026-04-24 10:46 56.87373 56.57507 35731 ft 433 kts 266°
2026-04-24 10:47 56.87364 56.46490 35733 ft 434 kts 266°
2026-04-24 10:47 56.87425 56.35464 35723 ft 434 kts 268°
2026-04-24 10:48 56.87555 56.24440 35723 ft 433 kts 268°
2026-04-24 10:48 56.87663 56.13423 35719 ft 433 kts 267°
2026-04-24 10:49 56.87753 56.02431 35718 ft 432 kts 267°
2026-04-24 10:49 56.87497 55.91513 35712 ft 427 kts 257°
2026-04-24 10:50 56.85745 55.81239 35729 ft 422 kts 245°
2026-04-24 10:50 56.83438 55.71380 35733 ft 423 kts 245°
2026-04-24 10:51 56.81120 55.61506 35718 ft 423 kts 245°
2026-04-24 10:51 56.78812 55.51602 35712 ft 424 kts 245°
2026-04-24 10:52 56.76506 55.41695 35708 ft 425 kts 245°
2026-04-24 10:52 56.74190 55.31773 35710 ft 426 kts 245°
2026-04-24 10:53 56.71861 55.21849 35709 ft 426 kts 245°
2026-04-24 10:53 56.69522 55.11926 35702 ft 427 kts 245°
2026-04-24 10:54 56.67171 55.02001 35706 ft 427 kts 245°
2026-04-24 10:54 56.64812 54.92086 35689 ft 428 kts 244°
2026-04-24 10:55 56.62442 54.82173 35688 ft 428 kts 244°
2026-04-24 10:55 56.60067 54.72278 35692 ft 428 kts 244°
2026-04-24 10:56 56.57684 54.62399 35692 ft 428 kts 244°
2026-04-24 10:56 56.55696 54.54191 35688 ft 428 kts 244°
2026-04-24 10:57 56.53300 54.44337 35685 ft 427 kts 244°
2026-04-24 10:57 56.50897 54.34491 35688 ft 427 kts 244°
2026-04-24 10:58 56.48484 54.24669 35691 ft 427 kts 244°
2026-04-24 10:58 56.46059 54.14877 35688 ft 427 kts 244°
2026-04-24 10:59 56.43628 54.05091 35677 ft 427 kts 244°
2026-04-24 10:59 56.41190 53.95317 35678 ft 426 kts 244°
2026-04-24 11:00 56.38758 53.85571 35676 ft 426 kts 244°
2026-04-24 11:00 56.36337 53.75889 35680 ft 426 kts 244°
2026-04-24 11:01 56.33896 53.66171 35679 ft 426 kts 244°
2026-04-24 11:01 56.31434 53.56481 35676 ft 426 kts 243°
2026-04-24 11:02 56.28937 53.46816 35674 ft 426 kts 243°
2026-04-24 11:02 56.26434 53.37164 35663 ft 426 kts 243°
2026-04-24 11:03 56.23926 53.27517 35664 ft 426 kts 243°
2026-04-24 11:03 56.21412 53.17882 35662 ft 426 kts 243°
2026-04-24 11:04 56.18889 53.08250 35658 ft 426 kts 243°
2026-04-24 11:04 56.16358 52.98630 35661 ft 427 kts 243°
2026-04-24 11:05 56.13813 52.89001 35662 ft 427 kts 243°
2026-04-24 11:05 56.11262 52.79384 35657 ft 427 kts 243°
2026-04-24 11:06 56.08702 52.69771 35654 ft 428 kts 243°
2026-04-24 11:06 56.06132 52.60162 35646 ft 428 kts 243°
2026-04-24 11:07 56.02290 52.45761 35647 ft 428 kts 243°
2026-04-24 11:07 55.99726 52.36175 35644 ft 428 kts 242°
2026-04-24 11:08 55.97151 52.26592 35643 ft 427 kts 242°
2026-04-24 11:08 55.94585 52.17087 35646 ft 428 kts 242°
2026-04-24 11:09 55.91996 52.07539 35645 ft 428 kts 242°
2026-04-24 11:09 55.89401 51.98005 35640 ft 428 kts 242°
2026-04-24 11:10 55.86794 51.88470 35642 ft 428 kts 242°
2026-04-24 11:10 55.84184 51.78960 35641 ft 428 kts 242°
2026-04-24 11:11 55.81557 51.69429 35638 ft 429 kts 242°
2026-04-24 11:11 55.78921 51.59903 35628 ft 430 kts 242°
2026-04-24 11:12 55.76264 51.50373 35628 ft 430 kts 241°
2026-04-24 11:12 55.73606 51.40833 35619 ft 430 kts 242°
2026-04-24 11:13 55.71209 51.31163 35628 ft 431 kts 245°
2026-04-24 11:13 55.68919 51.21316 35621 ft 432 kts 245°
2026-04-24 11:14 55.66613 51.11459 35618 ft 432 kts 245°
2026-04-24 11:14 55.64288 51.01651 35611 ft 432 kts 244°
2026-04-24 11:15 55.61945 50.91841 35615 ft 432 kts 244°
2026-04-24 11:15 55.59597 50.82063 35611 ft 432 kts 244°
2026-04-24 11:16 55.57235 50.72268 35613 ft 432 kts 244°
2026-04-24 11:16 55.54870 50.62506 35602 ft 433 kts 244°
2026-04-24 11:17 55.52494 50.52737 35604 ft 432 kts 244°
2026-04-24 11:17 55.50113 50.42994 35598 ft 433 kts 244°
2026-04-24 11:18 55.47728 50.33271 35591 ft 432 kts 244°
2026-04-24 11:18 55.45331 50.23542 35603 ft 432 kts 244°
2026-04-24 11:19 55.42928 50.13821 35584 ft 433 kts 244°
2026-04-24 11:19 55.40536 50.04177 35581 ft 433 kts 245°
2026-04-24 11:20 55.39149 49.93809 35598 ft 440 kts 261°
2026-04-24 11:20 55.39334 49.83006 35591 ft 444 kts 271°
2026-04-24 11:21 55.39941 49.72163 35577 ft 445 kts 271°
2026-04-24 11:21 55.40509 49.61318 35577 ft 445 kts 271°
2026-04-24 11:22 55.41035 49.50453 35571 ft 446 kts 271°
2026-04-24 11:22 55.41549 49.39557 35560 ft 446 kts 271°
2026-04-24 11:23 55.42047 49.28682 35556 ft 446 kts 270°
2026-04-24 11:23 55.42528 49.17857 35554 ft 446 kts 270°
2026-04-24 11:24 55.43006 49.06963 35547 ft 446 kts 270°
2026-04-24 11:24 55.43477 48.96064 35555 ft 446 kts 270°
2026-04-24 11:25 55.43939 48.85161 35552 ft 447 kts 270°
2026-04-24 11:25 55.44393 48.74224 35547 ft 447 kts 270°
2026-04-24 11:26 55.44840 48.63283 35534 ft 448 kts 270°
2026-04-24 11:26 55.45438 48.52348 35523 ft 452 kts 278°
2026-04-24 11:27 55.47197 48.41682 35523 ft 455 kts 283°
2026-04-24 11:27 55.49111 48.31053 35525 ft 455 kts 283°
2026-04-24 11:28 55.50990 48.20382 35526 ft 455 kts 283°
2026-04-24 11:28 55.52821 48.09759 35513 ft 455 kts 283°
2026-04-24 11:29 55.54645 47.99049 35507 ft 455 kts 283°
2026-04-24 11:29 55.56459 47.88330 35501 ft 456 kts 283°
2026-04-24 11:30 55.58268 47.77589 35505 ft 456 kts 283°
2026-04-24 11:30 55.60071 47.66816 35508 ft 456 kts 283°
2026-04-24 11:31 55.61865 47.56036 35492 ft 457 kts 283°
2026-04-24 11:31 55.63650 47.45243 35482 ft 457 kts 283°
2026-04-24 11:32 55.65416 47.34506 35478 ft 457 kts 283°
2026-04-24 11:32 55.67184 47.23698 35481 ft 457 kts 282°
2026-04-24 11:33 55.68942 47.12868 35471 ft 457 kts 282°
2026-04-24 11:33 55.70685 47.02038 35478 ft 457 kts 282°
2026-04-24 11:34 55.72423 46.91191 35469 ft 457 kts 282°
2026-04-24 11:34 55.74158 46.80310 35192 ft 460 kts 282°
2026-04-24 11:35 55.75025 46.74863 34958 ft 458 kts 282°
2026-04-24 11:35 55.75889 46.69423 34727 ft 457 kts 282°
2026-04-24 11:35 55.76745 46.63994 34502 ft 458 kts 282°
2026-04-24 11:35 55.77604 46.58532 34059 ft 459 kts 282°
2026-04-24 11:36 55.78465 46.53049 33327 ft 461 kts 282°
2026-04-24 11:36 55.79324 46.47552 32467 ft 463 kts 282°
2026-04-24 11:36 55.80177 46.42047 31701 ft 459 kts 282°
2026-04-24 11:36 55.81015 46.36590 31172 ft 453 kts 281°
2026-04-24 11:37 55.81837 46.31204 30622 ft 449 kts 281°
2026-04-24 11:37 55.82649 46.25866 30080 ft 445 kts 281°
2026-04-24 11:37 55.83449 46.20583 29554 ft 441 kts 281°
2026-04-24 11:37 55.84242 46.15334 28912 ft 437 kts 281°
2026-04-24 11:38 55.85016 46.10196 28342 ft 432 kts 281°
2026-04-24 11:38 55.85790 46.05046 27793 ft 427 kts 281°
2026-04-24 11:38 55.86551 45.99969 27255 ft 422 kts 281°
2026-04-24 11:38 55.87302 45.94941 26716 ft 418 kts 281°
2026-04-24 11:39 55.88045 45.89951 26187 ft 414 kts 281°
2026-04-24 11:39 55.88778 45.85006 25637 ft 411 kts 281°
2026-04-24 11:39 55.89506 45.80085 25096 ft 408 kts 281°
2026-04-24 11:39 55.90224 45.75210 24559 ft 405 kts 281°
2026-04-24 11:40 55.90939 45.70352 24040 ft 403 kts 281°
2026-04-24 11:40 55.91643 45.65548 23525 ft 400 kts 281°
2026-04-24 11:40 55.92344 45.60748 22997 ft 398 kts 281°
2026-04-24 11:40 55.93037 45.55992 22385 ft 393 kts 281°
2026-04-24 11:41 55.93712 45.51361 21866 ft 381 kts 281°
2026-04-24 11:41 55.94373 45.46807 21360 ft 376 kts 282°
2026-04-24 11:41 55.95019 45.42328 20857 ft 371 kts 282°
2026-04-24 11:41 55.95442 45.39390 20538 ft 368 kts 282°
2026-04-24 11:42 55.96076 45.34983 20028 ft 364 kts 282°
2026-04-24 11:42 55.96698 45.30638 19550 ft 360 kts 282°
2026-04-24 11:42 55.97314 45.26326 19055 ft 356 kts 282°
2026-04-24 11:42 55.98119 45.20678 18418 ft 352 kts 282°
2026-04-24 11:43 55.98525 45.17825 18097 ft 349 kts 283°
2026-04-24 11:43 55.99121 45.13628 17610 ft 346 kts 283°
2026-04-24 11:43 55.99707 45.09494 17117 ft 341 kts 282°
2026-04-24 11:43 56.00277 45.05452 16645 ft 337 kts 283°
2026-04-24 11:44 56.00958 45.01478 16152 ft 335 kts 293°
2026-04-24 11:44 56.02083 44.97849 15725 ft 332 kts 299°
2026-04-24 11:44 56.03268 44.94322 15237 ft 330 kts 300°
2026-04-24 11:44 56.04451 44.90819 14777 ft 328 kts 300°
2026-04-24 11:45 56.05630 44.87294 14309 ft 333 kts 298°
2026-04-24 11:45 56.06823 44.83685 13841 ft 340 kts 298°
2026-04-24 11:45 56.08021 44.80030 13357 ft 340 kts 298°
2026-04-24 11:45 56.09211 44.76379 12833 ft 337 kts 298°
2026-04-24 11:46 56.10386 44.72764 12317 ft 334 kts 298°
2026-04-24 11:46 56.11541 44.69201 11859 ft 330 kts 298°
2026-04-24 11:46 56.12697 44.65630 11369 ft 328 kts 298°
2026-04-24 11:46 56.13832 44.62117 10898 ft 325 kts 298°
2026-04-24 11:47 56.14962 44.58613 10431 ft 322 kts 298°
2026-04-24 11:47 56.16078 44.55147 9970 ft 320 kts 297°
2026-04-24 11:47 56.17172 44.51738 9779 ft 308 kts 297°
2026-04-24 11:47 56.18224 44.48471 9637 ft 297 kts 297°
2026-04-24 11:48 56.19234 44.45324 9501 ft 286 kts 297°
2026-04-24 11:48 56.20212 44.42279 9313 ft 278 kts 297°
2026-04-24 11:48 56.21168 44.39289 9011 ft 274 kts 297°
2026-04-24 11:48 56.21773 44.37388 8838 ft 271 kts 297°
2026-04-24 11:49 56.21902 44.36980 8791 ft 270 kts 297°
2026-04-24 11:49 56.22537 44.34981 8518 ft 271 kts 297°
2026-04-24 11:49 56.23469 44.32055 8234 ft 267 kts 297°
2026-04-24 11:50 56.24387 44.29170 7913 ft 265 kts 297°
2026-04-24 11:50 56.25298 44.26290 7604 ft 266 kts 297°
2026-04-24 11:50 56.26218 44.23398 7293 ft 267 kts 297°
2026-04-24 11:50 56.27146 44.20494 6979 ft 268 kts 297°
2026-04-24 11:51 56.28065 44.17583 6656 ft 268 kts 296°
2026-04-24 11:51 56.28987 44.14662 6344 ft 267 kts 296°
2026-04-24 11:51 56.30139 44.12070 6055 ft 268 kts 322°
2026-04-24 11:51 56.31808 44.10552 5668 ft 271 kts 337°
2026-04-24 11:52 56.33557 44.09312 5311 ft 270 kts 338°
2026-04-24 11:52 56.35305 44.08073 5004 ft 268 kts 338°
2026-04-24 11:52 56.37014 44.06841 4974 ft 263 kts 337°
2026-04-24 11:52 56.38735 44.05577 4970 ft 268 kts 336°
2026-04-24 11:53 56.40465 44.04288 4661 ft 271 kts 336°
2026-04-24 11:53 56.42090 44.02638 4375 ft 266 kts 315°
2026-04-24 11:53 56.43046 43.99880 4056 ft 259 kts 283°
2026-04-24 11:53 56.43152 43.96714 3882 ft 247 kts 260°
2026-04-24 11:54 56.42712 43.93838 3801 ft 232 kts 242°
2026-04-24 11:54 56.42053 43.91253 3719 ft 221 kts 243°
2026-04-24 11:54 56.41448 43.88788 3656 ft 206 kts 242°
2026-04-24 11:54 56.40887 43.86496 3540 ft 193 kts 236°
2026-04-24 11:55 56.39977 43.85038 3448 ft 167 kts 197°
2026-04-24 11:55 56.38892 43.84467 3234 ft 159 kts 192°
2026-04-24 11:55 56.37828 43.84027 3010 ft 157 kts 190°
2026-04-24 11:55 56.36751 43.83626 2825 ft 159 kts 189°
2026-04-24 11:56 56.35670 43.83233 2623 ft 159 kts 189°
2026-04-24 11:56 56.34561 43.82828 2400 ft 164 kts 189°
2026-04-24 11:56 56.33441 43.82415 2167 ft 163 kts 190°
2026-04-24 11:56 56.32358 43.82014 1953 ft 152 kts 189°
2026-04-24 11:57 56.31378 43.81656 1748 ft 142 kts 190°
2026-04-24 11:57 56.30414 43.81305 1581 ft 143 kts 190°
2026-04-24 11:57 56.29457 43.80957 1361 ft 139 kts 190°
2026-04-24 11:57 56.28494 43.80604 1175 ft 142 kts 191°
2026-04-24 11:58 56.27528 43.80251 958 ft 141 kts 191°
2026-04-24 11:58 56.26565 43.79898 771 ft 142 kts 191°
2026-04-24 11:58 56.25590 43.79537 595 ft 145 kts 191°
2026-04-24 11:58 56.24600 43.79173 404 ft 145 kts 192°
2026-04-24 11:59 56.23633 43.78817 265 ft 134 kts 192°
2026-04-24 11:59 56.22909 43.78551 266 ft 76 kts 191°
2026-04-24 11:59 56.22588 43.78434 264 ft 30 kts 191°
2026-04-24 11:59 56.22389 43.78361 265 ft 28 kts 191°
2026-04-24 12:00 56.22201 43.78293 265 ft 25 kts 191°
2026-04-24 12:00 56.22086 43.78251 266 ft 11 kts 191°
2026-04-24 12:00 56.22013 43.78225 266 ft 8 kts 191°
2026-04-24 12:00 56.21963 43.78234 265 ft 7 kts 147°
2026-04-24 12:01 56.21943 43.78313 266 ft 7 kts 99°
2026-04-24 12:01 56.21934 43.78399 266 ft 7 kts 102°
2026-04-24 12:01 56.21924 43.78483 265 ft 7 kts 101°
2026-04-24 12:01 56.21915 43.78565 265 ft 7 kts 101°
2026-04-24 12:02 56.21911 43.78621 265 ft 4 kts 85°
2026-04-24 12:02 56.21921 43.78667 265 ft 4 kts 73°
2026-04-24 12:02 56.21919 43.78716 265 ft 4 kts 102°
2026-04-24 12:02 56.21914 43.78757 265 ft 3 kts 102°
2026-04-24 12:03 56.21909 43.78796 265 ft 3 kts 101°
2026-04-24 12:03 56.21906 43.78824 265 ft 2 kts 101°
2026-04-24 12:03 56.21905 43.78835 265 ft 0 kts 101°